Regional Weather Roundup
Issued by NWS

Home | Current Version | Previous Version | Text Only | Print | Product List | Glossary Off
Versions: 1 2 3 4 5 6 7 8 9 10 11 12 13 14 15 16 17 18 19 20 21 22 23 24 25 26 27 28 29 30 31 32 33 34 35 36 37 38 39 40 41 42 43 44 45 46 47 48 49 50

000
ASUS43 KMPX 260301
RWRMN
WEATHER ROUNDUP FOR MINNESOTA
NATIONAL WEATHER SERVICE TWIN CITIES/CHANHASSEN MN
1000 PM CDT TUE APR 25 2017


NOTE: "FAIR" INDICATES FEW OR NO CLOUDS BELOW 12,000 FEET WITH NO
SIGNIFICANT WEATHER AND/OR OBSTRUCTIONS TO VISIBILITY. N/A MEANS
CURRENT SKY AND/OR WEATHER CONDITIONS ARE NOT AVAILABLE.

MNZ060>063-068>070-260400-
   Twin Cities Metro

CITY           SKY/WX    TMP DP  RH WIND       PRES   REMARKS
TWIN CITIES    LGT RAIN  54  51  90 NE10      29.55F FOG
ST PAUL        LGT RAIN  54  54 100 NE8       29.56F FOG
CRYSTAL        LGT RAIN  50  46  86 NE15      29.57S
BLAINE         LGT RAIN  50  50 100 NE9G18    29.58S
LAKEVILLE      DRIZZLE   52  52 100 N6        29.54F
EDEN PRAIRIE   LGT RAIN  55  52  89 NE9       29.54F FOG
SOUTH ST PAUL  CLOUDY    54  53  99 NE5       29.55F FOG
LAKE ELMO      DRIZZLE   54  54 100 NE7       29.57F
$$
MNZ001>005-007-008-013>017-022>024-027-028-260400-
   Northwest Minnesota

CITY           SKY/WX    TMP DP  RH WIND       PRES   REMARKS
BEMIDJI        CLOUDY    30  27  88 NE14G21   29.81R WCI  19
HALLOCK        CLOUDY    34  27  75 NE15G26   29.94R WCI  24
ROSEAU         CLOUDY    30  25  80 NE18      29.94R WCI  18
WARROAD        CLOUDY    30  27  86 NE22G29   29.94R WCI  17
THIEF RVR FALL CLOUDY    31  26  82 NE24G31   29.88R WCI  17
CROOKSTON      CLOUDY    34  28  80 NE20G25   29.88R WCI  22
FOSSTON        CLOUDY    30  27  86 N18G25    29.82S WCI  18
DETROIT LAKES  CLOUDY    34  32  93 NE17G24   29.77R WCI  23
MOORHEAD       CLOUDY    34  28  80 N17G28    29.81R WCI  23
PARK RAPIDS    CLOUDY    33  27  78 NE15G25   29.75R WCI  23
MAHNOMEN       CLOUDY    32  29  88 NE21      29.79R WCI  20
$$
MNZ006-009>011-018-025>026-260400-
   North Central Minnesota

CITY           SKY/WX    TMP DP  RH WIND       PRES   REMARKS
BAUDETTE       CLOUDY    29  22  75 NE17G30   29.91R WCI  17
FLAG ISLAND    CLOUDY    30  25  80 NE20G28   29.96R WCI  18
INTL FALLS     CLOUDY    29  22  75 NE15G24   29.89S WCI  18
WASKISH        CLOUDY    30  27  86 NE14G23   29.87R WCI  20
BIG FORK       CLOUDY    28  25  86 NE8G18    29.83R WCI  20
LONGVILLE      MIX PCPN  30  30 100 N7        29.76S WCI  23
GRAND RAPIDS   MIX PCPN  30  28  92 N8        29.79R WCI  22
CRANE LAKE     CLOUDY    27  25  93 NE8G18    29.89S WCI  18
ORR            CLOUDY    27  23  86 N7        29.82R WCI  19
COOK           MIX PCPN  28  25  86 N9G17     29.83R WCI  20
WALKER         CLOUDY    31  28  90 NE10      29.78R WCI  22
$$
MNZ012-019>021-037-260400-
   Northeast Minnesota

CITY           SKY/WX    TMP DP  RH WIND       PRES   REMARKS
DULUTH         LGT RAIN  40  38  93 NE8       29.73R FOG
ELY            MIX PCPN  28  27  93 NE8G18    29.81S WCI  20
HIBBING        FRZ RAIN  29  27  92 N14G24    29.78R WCI  18
EVELETH        MIX PCPN  32  29  87 NE13G22     N/A  WCI  23
DULUTH HARBOR  LGT RAIN  39  37  93 E17       29.76R
TWO HARBORS    LGT RAIN  39  36  87 NE6       29.73R
SILVER BAY     LGT RAIN  36  36 100 N6        29.74S
GRAND MARAIS     N/A     35  31  85 N15G30    29.77R WCI  25
G MARAIS ARPRT LGT SNOW  28  25  86 N9        29.76S WCI  20
$$
MNZ029>031-032-039>041-046>048-054>057-064-260400-
   West Central Minnesota

CITY           SKY/WX    TMP DP  RH WIND       PRES   REMARKS
FERGUS FALLS   CLOUDY    37  32  81 NE8G16    29.74R
WHEATON        CLOUDY    37  32  81 N17G24    29.75S
MORRIS         LGT RAIN  39  37  93 N14       29.68S
ALEXANDRIA     CLOUDY    38  35  89 NE14      29.68S
ELBOW LAKE     CLOUDY    38  35  88 NE14      29.72R
WADENA         CLOUDY    34  30  86 N17       29.72S WCI  23
GLENWOOD       DRIZZLE   39  36  87 N20G26    29.66R
APPLETON       LGT RAIN  43  37  81 N15       29.68S
BENSON         RAIN      45  36  70 NE14      29.67S
ORTONVILLE     RAIN      36  34  93 N20       29.71S
MADISON        MIX PCPN  41  39  93 NW17G28   29.68S
WILLMAR        LGT RAIN  43  43 100 N16       29.62F
$$
MNZ033>034-036-042>043-049>051-058-059-260400-
   Central Minnesota

CITY           SKY/WX    TMP DP  RH WIND       PRES   REMARKS
ST CLOUD       LGT RAIN  47  45  93 NE10G23   29.62S
SAUK CENTRE    RAIN      40  37  89 N15G21    29.65S
PAYNESVILLE    LGT RAIN  44  44 100 N17       29.62F
AITKIN         MIX PCPN  37  34  87 N13       29.71R
PINE RIVER     DRIZZLE   34  30  86 N14       29.78R WCI  24
BRAINERD       LGT RAIN  37  35  92 N12       29.71R
STAPLES        LGT RAIN  34  32  93 NE13G18   29.71S WCI  25
LONG PRAIRIE   CLOUDY    37  34  87 NW14G20   29.67S
LITTLE FALLS   MIX PCPN  39  36  87 N6        29.67S
LITCHFIELD     RAIN      48  48 100 NE16      29.59F
BUFFALO        LGT RAIN  47  45  90 NE16G22   29.59S
MAPLE LAKE     DRIZZLE   48  46  95 NE12G18   29.59F
HUTCHINSON     RAIN      49  49  99 N7        29.58S
$$
MNZ037-044-045-052-053-260400-
   East Central Minnesota

CITY           SKY/WX    TMP DP  RH WIND       PRES   REMARKS
PRINCETON      LGT RAIN  48  45  87 N14       29.62F
MORA           LGT RAIN  43  39  87 NE7       29.67S
CAMBRIDGE      LGT RAIN  48  43  81 NE10      29.60F
RUSH CITY      LGT RAIN  44  42  92 NE14G20   29.64R
MOOSE LAKE     LGT RAIN  41  39  93 NE8G18    29.68S
HINCKLEY       LGT RAIN  45  43  93 NE12      29.66S
CLOQUET        RAIN      41  39  93 NE10      29.72R
MCGREGOR       CLOUDY    36  34  93 N9G20     29.72S
$$
MNZ071>073-080-081-089-090-097-098-260400-
   Southwest Minnesota

CITY           SKY/WX    TMP DP  RH WIND       PRES   REMARKS
MONTEVIDEO     RAIN      43  43 100 N13       29.65S
GRANITE FALLS  RAIN      43  41  93 NW12      29.65S
CANBY          DRIZZLE   38  36  94 NW18G25   29.69S
MARSHALL       LGT RAIN  38  36  92 NW20G26   29.64S
REDWOOD FALLS  LGT RAIN  45  42  89 N9G18     29.59S
OLIVIA         LGT RAIN  43  41  93 N13       29.59S
PIPESTONE      LGT RAIN  37  34  87 N12G20    29.63S
WINDOM         LGT RAIN  39  39 100 NW23      29.58S
WORTHINGTON    LGT RAIN  38  37  97 NW21G30   29.60S
JACKSON        LGT RAIN  41  39  93 NW18G26   29.57S
TRACY          RAIN      39  38  98 NW17G25   29.63R
SLAYTON        LGT RAIN  37  36  97 NW21      29.62S
$$
MNZ065>067-074>077-082>085-091>093-260400-
   South Central Minnesota

CITY           SKY/WX    TMP DP  RH WIND       PRES   REMARKS
MANKATO        LGT RAIN  49  49 100 N9        29.53F FOG
NEW ULM        RAIN      48  48 100 N9G16     29.55F
ST JAMES       RAIN      45  45 100 NW13      29.56S
FAIRMONT       LGT RAIN  44  43  96 NW16      29.54F FOG
GLENCOE        DRIZZLE   52  52 100 NE3       29.55F
FARIBAULT      LGT RAIN  52  52 100 N7        29.53F
OWATONNA       CLOUDY    52  50  93 N6        29.52F FOG
WASECA         CLOUDY    50  46  87 N10       29.54S FOG
ALBERT LEA     CLOUDY    48  48 100 N8        29.51S FOG
$$
MNZ078>079-086>088-094>096-260400-
   Southeast Minnesota

CITY           SKY/WX    TMP DP  RH WIND       PRES   REMARKS
ROCHESTER      LGT RAIN  54  53  97 E7        29.52R
RED WING       CLOUDY    55  54  94 CALM      29.53F
STANTON        CLOUDY    54  52  94 NE9       29.52F FOG
DODGE CENTER   DRIZZLE   54  52  94 N7        29.52S
WINONA         LGT RAIN  55  52  88 CALM      29.53S
AUSTIN         DRIZZLE   54  52  94 N6        29.51R
PRESTON        LGT RAIN  55  50  86 NE10G17   29.51R
$$
ABBREVIATIONS USED IN REMARKS
   TC - TEMPERATURES IN CELSIUS
  WCI - WIND CHILL INDEX
   HX - HEAT INDEX
  VSB - VISIBILITY
$$




USA.gov is the U.S. government's official web portal to all federal, state and local government web resources and services.